Vertical_Velocity
-0 -1 1 -0 -1 -1 -2 -2 -1 -1 -1 -0 1 0 -0 -0 -1 -0 0 -0 -1 -1 -1 -0 1 0 0 -0 -0 -0 -0 -0 -0 -1 -1 -1 -0 0 -0 -1 -1 -1 -1
-4 1 1 -0 -1 -0 -1 -1 -1 -1 -0 0 1 0 -0 -1 -0 -0 -0 -0 -0 -1 -1 -1 -1 -1 0 1 0 -0 -1 -1 -0 0 -0 0 0 -1 -2 -1 -1 -1 -1
3 1 -0 0 -1 0 -1 -2 -1 -1 0 0 -1 0 -1 -1 -0 -0 0 -0 -0 1 -0 -1 -1 -0 -0 0 1 0 0 -0 0 1 0 0 0 -0 0 0 -0 -0 -0
4 2 2 1 0 1 -0 -1 -0 -1 -1 1 -0 -0 -0 -1 -1 -1 0 -0 -0 -1 1 0 -0 0 -0 -0 0 0 0 1 0 -0 -0 -0 0 -0 -1 -0 -1 -1 -0
2 4 1 1 1 1 1 0 0 -1 0 1 0 0 0 -0 -1 -1 0 -0 0 -0 0 0 -0 1 0 -1 -1 -0 -1 0 -0 -1 -0 -1 0 1 1 0 1 -0 -1
2 3 3 2 1 1 0 1 2 -0 -1 1 1 0 1 0 0 -0 0 -1 0 0 0 0 0 0 1 -1 -0 -0 -0 -1 -0 -0 -1 0 -2 -1 -1 -1 -0 1 -0
4 2 3 4 2 1 1 2 0 0 -0 1 2 1 1 1 1 0 -0 -1 -1 1 1 0 -0 0 0 0 -0 -1 0 1 1 -0 -0 -1 -2 -0 -1 -2 -2 -1 -1
6 3 2 5 4 1 1 -0 0 0 -0 -1 2 1 2 1 2 1 1 -0 -1 2 2 1 0 0 -1 -0 0 -0 -1 -1 -1 -0 -2 1 0 -1 -0 -2 -2 -1 -1
7 5 0 3 3 2 0 -1 -1 1 1 -0 1 1 2 2 2 1 2 1 -1 2 2 1 0 1 1 0 -0 -0 -0 -0 -1 -0 -1 -1 2 -0 0 -0 -1 -0 -1
10 6 5 1 1 3 1 -0 -2 1 0 2 1 1 3 2 1 2 1 1 1 2 2 0 1 1 1 0 -1 -0 -0 -1 -1 -1 -0 0 -2 -1 -0 0 -0 0 1
13 8 4 2 -1 2 3 0 -0 0 -1 0 1 1 1 2 1 1 1 1 1 1 0 -0 0 2 1 1 1 0 -0 0 -0 -1 -1 -0 0 -1 0 -1 -1 -0 -1
-11 -13 11 -1 0 1 2 3 1 2 3 -0 1 1 1 0 2 2 1 1 1 1 0 -1 -0 1 1 0 -0 0 -0 0 1 1 -0 -0 0 1 0 0 -1 -1 -1
11 14 18 3 7 2 5 2 1 0 0 -0 1 0 2 1 -0 2 1 1 2 2 1 -2 -1 -0 -0 0 0 0 1 -0 -1 -1 -1 -0 -1 -0 -1 0 -2 -2 0
33 25 -8 3 -1 6 7 6 2 2 2 2 0 -0 1 3 0 1 1 2 2 2 1 -1 0 -0 -1 -0 -0 0 -1 1 0 -1 -1 -0 -2 -1 -1 -1 1 -1 -0
6 39 8 3 2 1 -0 5 5 2 2 2 1 1 1 2 1 3 1 3 2 3 1 0 1 0 -0 -1 -0 0 -1 0 1 0 0 -0 -2 -1 -2 -2 -2 -1 -1
16 2 8 18 16 -4 9 3 4 1 2 2 4 -0 2 3 1 2 2 1 2 2 2 0 0 -0 -1 0 -0 0 -0 -1 -0 0 -2 1 -2 1 -2 -0 -1 -0 -3
-14 20 -16 57 34 -8 2 2 7 1 1 3 3 1 -1 2 1 1 2 -0 4 1 2 1 2 1 -1 1 -0 0 0 -3 -1 1 -1 -0 -2 0 -1 1 -4 -1 1
6 -65 -3 -28 164 25 7 6 4 8 3 3 3 2 -0 -0 0 1 0 1 2 2 2 1 1 2 -1 1 1 -1 1 0 -1 -1 -3 -1 -1 -2 -1 1 -1 -1 -3
-12 13 -12 3 16 38 15 10 0 8 2 5 1 4 2 1 0 1 0 0 1 1 2 2 1 2 1 0 -1 1 0 1 -2 2 -0 -2 0 0 -3 2 -1 -2 0
-2 10 9 -38 -26 63 104 5 0 9 5 2 -1 1 -0 4 1 2 2 1 0 0 1 -0 -1 -1 -0 1 -1 1 -1 -0 -1 2 3 0 -1 -1 -1 -1 -1 0 -2
-16 10 4 1 5 -69 84 22 0 5 5 1 3 2 2 -0 1 2 2 1 2 2 2 1 1 1 2 0 -1 1 1 -1 -2 -2 -1 -1 -1 0 -2 -1 -2 -1 -3
-4 -12 -16 -32 -30 -41 -10 5 14 4 -5 -2 0 4 2 -3 0 1 2 1 1 2 0 1 1 -1 0 -1 -1 -0 -0 1 -2 -3 -1 -1 -1 -1 -0 -2 -2 0 -0
-2 0 -2 8 -22 -44 -18 -26 -22 5 -6 -2 1 5 1 1 2 1 1 1 1 0 1 1 2 1 -1 -0 -0 1 -3 -4 2 -4 -2 -1 -1 -2 -0 -6 -4 2 0
0 5 11 1 -17 2 -3 -28 -18 -46 1 4 2 4 3 -1 2 3 1 3 2 -0 1 2 1 1 -1 -0 -1 -1 4 3 -3 -3 -2 4 5 -3 -0 -0 -0 -1 -2
1 6 3 -3 -13 7 2 3 -11 -8 -17 -12 -5 5 3 1 0 7 3 0 6 2 4 2 -1 -2 -3 -5 8 -5 2 -9 -0 -0 -4 -5 2 0 -2 -2 -3 -1 1
1 3 8 6 13 13 -4 -5 -5 -6 -1 -9 -11 1 5 -2 -8 -5 -5 7 -6 -2 -2 -0 1 0 0 -3 -10 -13 2 1 0 2 1 -4 1 0 1 -1 -2 -1 -0
Height
3128 3128 3128 3130 3131 3132 3134 3136 3137 3138 3139 3140 3142 3143 3144 3145 3146 3148 3149 3151 3152 3154 3155 3156 3157 3157 3157 3158 3158 3158 3158 3159 3158 3158 3158 3158 3158 3159 3159 3160 3160 3160 3160
3125 3126 3127 3128 3130 3131 3133 3135 3137 3138 3139 3140 3141 3142 3144 3145 3147 3148 3150 3152 3152 3154 3155 3156 3156 3157 3157 3158 3158 3158 3158 3158 3159 3159 3159 3159 3159 3159 3160 3160 3160 3161 3161
3123 3124 3125 3126 3128 3130 3132 3134 3136 3138 3138 3139 3141 3142 3144 3146 3147 3148 3150 3152 3152 3153 3154 3155 3156 3157 3157 3158 3158 3159 3159 3159 3160 3160 3160 3160 3161 3161 3161 3161 3162 3162 3162
3121 3122 3123 3124 3126 3128 3130 3133 3135 3137 3138 3139 3140 3142 3144 3145 3147 3149 3150 3152 3152 3153 3154 3155 3156 3156 3157 3158 3159 3159 3160 3160 3160 3160 3161 3161 3161 3161 3162 3162 3162 3162 3162
3118 3119 3121 3123 3124 3127 3128 3131 3134 3136 3137 3139 3140 3142 3143 3145 3147 3149 3150 3151 3152 3153 3154 3155 3155 3156 3157 3158 3159 3160 3160 3161 3161 3161 3161 3161 3162 3162 3162 3161 3162 3162 3161
3116 3117 3119 3121 3122 3125 3127 3129 3133 3135 3137 3138 3140 3141 3143 3145 3147 3148 3149 3151 3152 3153 3154 3155 3156 3156 3157 3158 3160 3160 3161 3161 3162 3162 3162 3162 3162 3162 3162 3162 3162 3162 3162
3112 3114 3116 3119 3121 3124 3126 3128 3131 3134 3136 3137 3139 3141 3143 3145 3146 3147 3149 3150 3151 3153 3154 3155 3156 3157 3158 3159 3160 3161 3162 3162 3163 3163 3163 3163 3163 3163 3164 3164 3163 3163 3162
3108 3110 3112 3115 3119 3121 3124 3126 3129 3132 3134 3136 3138 3140 3142 3144 3145 3147 3148 3150 3151 3153 3155 3156 3156 3157 3158 3159 3160 3161 3162 3163 3163 3163 3164 3164 3165 3164 3164 3164 3163 3163 3163
3103 3105 3108 3111 3115 3118 3121 3124 3126 3129 3133 3134 3137 3140 3142 3144 3145 3146 3147 3149 3151 3153 3155 3156 3156 3157 3157 3159 3160 3161 3162 3163 3163 3164 3164 3164 3165 3165 3165 3164 3164 3163 3163
3098 3100 3103 3107 3111 3115 3118 3121 3124 3126 3130 3132 3135 3138 3140 3142 3144 3145 3147 3148 3150 3152 3154 3155 3156 3157 3157 3158 3160 3161 3162 3163 3164 3164 3165 3165 3165 3164 3164 3165 3164 3163 3163
3091 3095 3098 3102 3106 3111 3115 3119 3121 3124 3127 3130 3133 3135 3138 3140 3142 3144 3145 3147 3149 3152 3153 3154 3156 3156 3157 3158 3159 3160 3162 3163 3163 3163 3164 3164 3164 3164 3164 3164 3163 3163 3162
3087 3093 3093 3097 3102 3107 3112 3116 3119 3123 3125 3127 3130 3133 3136 3138 3141 3143 3144 3146 3148 3150 3152 3154 3156 3156 3156 3157 3158 3160 3161 3162 3162 3163 3163 3164 3164 3164 3163 3163 3163 3162 3161
3078 3087 3085 3092 3098 3104 3109 3114 3118 3120 3122 3125 3128 3132 3134 3137 3139 3141 3143 3144 3146 3149 3150 3152 3155 3156 3156 3157 3157 3158 3160 3160 3161 3162 3163 3163 3163 3162 3162 3162 3161 3160 3160
3059 3066 3079 3085 3093 3099 3106 3110 3114 3118 3120 3123 3127 3130 3132 3135 3137 3140 3141 3143 3145 3147 3149 3151 3153 3155 3155 3156 3157 3157 3159 3160 3160 3161 3161 3162 3162 3161 3161 3160 3160 3159 3159
3057 3058 3070 3080 3087 3095 3102 3106 3110 3114 3118 3121 3123 3127 3130 3132 3135 3138 3140 3141 3143 3145 3147 3149 3151 3153 3154 3154 3155 3156 3158 3158 3159 3160 3160 3160 3161 3160 3160 3159 3159 3157 3156
3030 3055 3064 3078 3081 3089 3096 3103 3107 3110 3114 3117 3119 3123 3127 3130 3132 3135 3137 3139 3141 3142 3145 3147 3149 3151 3152 3154 3154 3155 3156 3156 3157 3158 3158 3158 3158 3158 3158 3157 3157 3156 3155
3040 3053 3055 3063 3075 3082 3091 3097 3103 3107 3111 3114 3116 3119 3123 3126 3129 3132 3135 3137 3138 3140 3143 3145 3147 3149 3150 3152 3153 3154 3154 3154 3155 3155 3155 3156 3155 3155 3155 3154 3154 3153 3152
3050 3045 3056 3052 3048 3075 3084 3090 3098 3102 3106 3109 3113 3116 3120 3123 3126 3129 3132 3134 3137 3138 3140 3142 3145 3146 3148 3149 3151 3152 3153 3152 3153 3153 3153 3153 3153 3152 3152 3152 3151 3151 3149
3043 3049 3051 3055 3051 3066 3074 3080 3091 3097 3100 3104 3108 3112 3116 3120 3123 3126 3129 3131 3134 3135 3137 3139 3142 3144 3145 3147 3148 3149 3151 3151 3151 3151 3150 3151 3150 3149 3149 3149 3148 3146 3146
3042 3043 3044 3050 3048 3051 3050 3070 3083 3090 3095 3099 3105 3109 3113 3116 3120 3123 3126 3129 3132 3134 3135 3137 3139 3141 3143 3144 3145 3146 3147 3147 3148 3148 3148 3147 3147 3146 3145 3145 3145 3144 3143
3039 3042 3048 3053 3055 3048 3048 3063 3077 3082 3089 3095 3101 3105 3108 3112 3116 3119 3122 3125 3128 3131 3133 3135 3137 3138 3140 3141 3142 3144 3144 3144 3144 3144 3144 3143 3143 3142 3142 3141 3141 3140 3138
3036 3034 3034 3040 3043 3053 3059 3062 3067 3078 3083 3090 3097 3101 3105 3109 3113 3117 3120 3123 3126 3128 3130 3132 3134 3135 3136 3137 3138 3140 3141 3142 3141 3141 3140 3140 3139 3138 3137 3136 3135 3134 3133
3038 3038 3042 3042 3042 3053 3060 3064 3067 3074 3081 3088 3094 3098 3102 3107 3112 3115 3118 3121 3124 3127 3128 3130 3131 3132 3133 3134 3134 3136 3136 3137 3137 3137 3137 3136 3134 3133 3132 3131 3131 3130 3129
3039 3040 3043 3045 3048 3049 3055 3057 3060 3074 3080 3085 3089 3094 3099 3104 3108 3112 3116 3119 3122 3124 3126 3128 3128 3129 3129 3130 3131 3131 3132 3133 3133 3132 3131 3130 3130 3128 3127 3127 3126 3126 3125
3036 3039 3042 3044 3050 3052 3051 3053 3059 3063 3072 3078 3087 3092 3096 3100 3104 3108 3111 3114 3116 3120 3123 3124 3126 3127 3126 3125 3125 3126 3126 3128 3129 3127 3126 3127 3126 3123 3122 3121 3120 3119 3119
3033 3036 3039 3044 3045 3046 3050 3054 3062 3065 3071 3076 3081 3087 3092 3095 3100 3105 3107 3109 3112 3115 3117 3118 3118 3119 3118 3119 3119 3119 3122 3122 3122 3121 3120 3118 3118 3117 3117 3116 3115 3114 3112